DECAYED
Showing default

BION-M 02, 65265 (Decayed)

Orbit data source: Space-Track

BION-M 02, 65265 was a payload satellite owned by Roskosmos (CIS) in LEO that was launched on Wed, 20 Aug 2025 UTC via a SOYUZ-2-1B launch vehicle from the Tyuratam Missile And Space Complex (TTMTR). Payload-class satellites include a variety of spacecraft equipped with specific instruments for various scientific and technological missions. These include communications satellites like Starlink; space stations such as the ISS; scientific satellites like the Hubble; Earth observation satellites from companies like Planet Labs, Umbra, and HawkEye 360; GPS; miniature CubeSats for education and research; and military/defense satellites.

Loading next visibility...
Identifier
65265, 2025-181A
Orbit
Decayed
Country
Flag of CISCIS
Related business
Manufacturer
TsSKB-Progress
Mission
Decayed Civil Biology
Bus & Motor
BION-M, Unknown motor
Mass
6,500 kg wet, 2,400 kg dry
Launch date (UTC)
2025-08-20 (10 months ago)
Launch vehicle
SOYUZ-2-1B
Launch site
Tyuratam Missile And Space Complex (TTMTR)
Object type
Payload
Rocket body
Debris
Shape & HBR
Cyl + Sphere + 2 Pan, 14.5 m
Radar Cross Section
14.514 m², Large (>1 m²)

Expand to show TLE details & history
Last TLE update: 9 months ago

TLE from 9 months ago
0 BION-M 02
1 65265U 25181A   25262.98217616  .00000014  00000-0  82219-4 0  9999
2 65265  88.2730 335.2158 0533628 133.0931 231.6044 11.31581029  4744
Epoch: 2025-09-19T23:34Z
TLE epoch observation values (Epoch: 2025-09-19T23:34:20.020Z)
Latitude
-0.00006°
Longitude
-17.48923°
Altitude
2,296.914 km
Speed
6.66 km/s
True Right ascension
22h 20m 51s
True Declination
0° 00' 00"
Sunlit
Object was in full shadow at epoch
Visualization orbit readout
Latitude
Unknown
Longitude
Unknown
Altitude
Unknown
Speed
Unknown
Apparent Right ascension
Unknown
Apparent Declination
Unknown
Sunlit
N/A
Visualization observer readout
Local Sidereal Time
10:19:47
Azimuth
Unknown
Elevation
Unknown
Doppler factor
Unknown
Orbital elements
Apogee altitude
2,446.969 km
Perigee altitude
1,552.819 km
Semi-major axis
8,378.031 km
Eccentricity
0.05336
Inclination
88.273°
RAAN
335.2158°
Arg. of periapsis
133.0931°
True anomaly
227.00772°
Mean anomaly
231.6044°
Eccentric anomaly
229.28689°
Mean motion
2.83029 °/min
Orbital period
127.2 mins
BSTAR
0.000082219
Loading maneuver chart data...
Computing Atmospheric mass density...
Loading historical data...
Loading historical data...
Loading historical data...
Loading historical data...
Loading historical data...
Loading historical data...
Loading historical data...
Other satellites on launch #181 in the year 2025 (2025-08-20 UTC)

Documentation

Showing up to 5 results
|